User: anonymous   Login
Location: Newark
(39.0622°N, 106.5590°E)
Time: 09:19:58
(UTC+00:00)
Language:

UWE-3 - Orbit

View from above orbital plane
View from above orbital plane
View from above satellite
View from above satellite

Ground track
Ground track

The orbit data is extracted from the following two-line orbital elements,

1 39446U 13066AG  20222.94141289 +.00000138 +00000-0 +24788-4 0  9993
2 39446 097.6011 209.6654 0070982 134.3588 226.3470 14.78569057360478
Epoch (UTC): 09 August 2020 22:35:38
Eccentricity: 0.0070982
inclination: 97.6011°
perigee height: 584 km
apogee height: 683 km
right ascension of ascending node: 209.6654°
argument of perigee: 134.3588°
revolutions per day: 14.78569057
mean anomaly at epoch: 226.3470°
orbit number at epoch: 36047

The dashed part of the orbit path shows where the satellite is in the earth's shadow,  

DLR